TimeEST,TemperatureF,Dew PointF,Humidity,Sea Level PressureIn,VisibilityMPH,Wind Direction,Wind SpeedMPH,Gust SpeedMPH,PrecipitationIn,Events,Conditions,WindDirDegrees,DateUTC
12:52 AM,46.9,39.9,77,30.55,10.0,NNE,12.7,-,N/A,,Clear,30,2012-11-18 05:52:00
1:52 AM,46.0,39.9,79,30.54,10.0,NNE,15.0,-,N/A,,Clear,30,2012-11-18 06:52:00
2:52 AM,46.9,39.9,77,30.54,10.0,NE,17.3,-,N/A,,Clear,40,2012-11-18 07:52:00
3:52 AM,46.9,39.0,74,30.53,10.0,NE,15.0,-,N/A,,Mostly Cloudy,40,2012-11-18 08:52:00
4:52 AM,46.0,39.0,76,30.55,10.0,NNE,17.3,-,N/A,,Clear,30,2012-11-18 09:52:00
5:52 AM,46.0,37.9,73,30.55,10.0,North,16.1,23.0,N/A,,Clear,10,2012-11-18 10:52:00
6:01 AM,46.4,37.4,71,30.54,10.0,North,12.7,-,N/A,,Scattered Clouds,10,2012-11-18 11:01:00
6:52 AM,45.0,37.9,76,30.55,10.0,North,16.1,-,N/A,,Scattered Clouds,10,2012-11-18 11:52:00
7:52 AM,46.0,37.9,73,30.56,10.0,NNE,13.8,-,N/A,,Mostly Cloudy,20,2012-11-18 12:52:00
8:52 AM,48.9,39.0,69,30.56,10.0,NNE,17.3,-,N/A,,Mostly Cloudy,20,2012-11-18 13:52:00
9:52 AM,52.0,39.9,63,30.56,10.0,NNE,15.0,23.0,N/A,,Mostly Cloudy,30,2012-11-18 14:52:00
10:52 AM,54.0,41.0,62,30.56,10.0,NNE,15.0,-,N/A,,Mostly Cloudy,20,2012-11-18 15:52:00
11:52 AM,54.0,41.0,62,30.53,10.0,NNE,15.0,-,N/A,,Mostly Cloudy,20,2012-11-18 16:52:00
12:52 PM,54.0,41.0,62,30.51,10.0,NNE,16.1,-,N/A,,Mostly Cloudy,20,2012-11-18 17:52:00
1:52 PM,54.0,41.0,62,30.50,10.0,North,10.4,-,N/A,,Mostly Cloudy,360,2012-11-18 18:52:00
2:52 PM,54.0,41.0,62,30.50,10.0,NNE,12.7,-,N/A,,Mostly Cloudy,20,2012-11-18 19:52:00
3:52 PM,52.0,41.0,66,30.50,10.0,NNE,12.7,-,N/A,,Mostly Cloudy,20,2012-11-18 20:52:00
4:52 PM,51.1,41.0,68,30.50,10.0,NNE,12.7,-,N/A,,Overcast,20,2012-11-18 21:52:00
5:52 PM,50.0,41.0,71,30.50,10.0,NNE,11.5,-,N/A,,Mostly Cloudy,20,2012-11-18 22:52:00
6:52 PM,51.1,39.9,66,30.50,10.0,NNE,15.0,-,N/A,,Overcast,20,2012-11-18 23:52:00
7:52 PM,50.0,39.0,66,30.50,10.0,North,16.1,-,N/A,,Overcast,10,2012-11-19 00:52:00
8:52 PM,48.9,39.0,69,30.49,10.0,North,15.0,-,N/A,,Clear,10,2012-11-19 01:52:00
9:52 PM,48.9,39.0,69,30.49,10.0,North,15.0,-,N/A,,Partly Cloudy,10,2012-11-19 02:52:00
10:52 PM,48.0,39.9,74,30.47,10.0,North,16.1,-,N/A,,Overcast,360,2012-11-19 03:52:00
11:52 PM,48.0,39.9,74,30.46,10.0,North,13.8,-,N/A,,Mostly Cloudy,360,2012-11-19 04:52:00